Погода в Серафимовиче

Погода в Серафимовиче : погода сейчас, прогноз погоды и архив. Всё, что Вы хотите узнать о погоде в Серафимовиче!

Поиск расширенной информации на нашем сайте:

Другие новости

Новости СМИ2

Главная страница сайта

Новости сайта

03.07.2017

Напоминаем, что на нашем специализированном сайте Метеоцентр.Азия вы можете получить высокодетализированные автоматические прогнозы погоды по пунктам России, СНГ и мира в авиационном формате (включающие направление и скорость ветра, видимость, явления погоды, количество и форму облачности, нижнюю и верхнюю границу облачности).

Рекомендуем: Работаем с овощами и салатами. Для ускорения работы используйте яйцерезку, это удобно.

Погода в Серафимовиче - сегодня

Время (UTC), дата Ветер
(°,м/с) 
Видим.   Явления Облачность Т
(°С)
Тd
(°С)
f(%) Тe
(°С)
Pmin
(гПа)
dP
(гПа)
Po
(мм)
O2
(г/м3)
Тmin Tmax R s Состояние
почвы
18 20.02.18 100 (В) 20000 м    10/10 600 м 
[Sc]
-5.8 -9.5 75 -10  1036.4  0.9  765  316           
21 20.02.18 250 (З) 20000 м    8/8 300 м 
[Sc]
-8.8 -11.4 81 -10  1023.5  0.3  755  316           
00 21.02.18 250 (З) 20000 м    8/8 300 м 
[Sc]
-10.1 -11.8 87 -13  1024.2  0.6  756  317           
03 21.02.18 230 (ЮЗ) 20000 м    10/10 300 м 
[Sc]
-9.9 -11.7 87 -12  1024.5  0.3  756  317  -10.8      12  равномерный
сухой снег
100% 
06 21.02.18 230 (ЮЗ) 20000 м    ясно 
-9.1 -12 79 -11  1025.3  0.8  757  317  -11.4         
09 21.02.18 250 (З) 20000 м    4/4 300 м 
[St]
-5 -10.5 65 -5  1025.1  0.1  757  312           
12 21.02.18 340 (С) 20000 м    ясно 
-4.3 -10.4 62 -6  1024.4  -0.6  756  311           
15 21.02.18 300 (СЗ) 20000 м    ясно 
-7.2 -11.2 73 -7  1024.8  0.2  756  314    -3.6       
18 21.02.18 180 (Ю) 20000 м    ясно 
-8.7 -11.3 81 -8  1025.5  0.6  757  316           
21 21.02.18 270 (З) 10 км    ясно 
-10.6 -12.2 88 -10  1025.6  -0.1  757  318           
00 22.02.18 240 (ЮЗ) 10 км    9/0 верхняя 
[Ci fib]
-11.9 -13.2 90 -14  1025.7  0.1  757  320           
03 22.02.18 тихо ()   10 км    9/0 верхняя 
[Ci fib]
-12.5 -14.1 88 -13  1025.5  -0.2  757  321  -13.2      10  равномерный
мокрый или
старый снег
100% 
06 22.02.18 тихо ()   4000 м  дымка [диам. изморози 2 мм]  9/0 верхняя 
[Ci]
-10.9 -12.5 88 -11  1025.7  0.3  757  319  -14.1         
09 22.02.18 020 (С) 10 км    8/0 верхняя 
[Ci sp]
-6.1 -9.9 74 -8  1025.3  0.1  757  313           
12 22.02.18 030 (СВ) 20000 м    8/0 средняя, верхняя 
[Ac trans|Ci sp]
-4.8 -10.3 65 -7  1024.9  -0.3  757  311           
15 22.02.18 040 (СВ) 20000 м    8/0 средняя, верхняя 
[Ac trans|Ci sp]
-8.2 -11 80 -10  1025.5  0.4  757  315    -4.7       
18 22.02.18 050 (СВ) 20000 м    3/0 верхняя 
[Ci fib]
-12.1 -14.3 84 -14  1026.4  0.5  757  321           
21 22.02.18 050 (СВ) 10 км    ясно 
-13.2 -15.2 85 -15  1026.8  0.3  758  322           
00 23.02.18 050 (СВ) 10 км    ясно 
-15.3 -16.8 88 -15  1026.6  -0.2  757  325           
06 23.02.18 050 (СВ) 20000 м    8/0 средняя, верхняя 
[Ac trans|Ci sp]
-16.4 -18.5 84 -17  1026.9  0.3  758  326  -17.2         
09 23.02.18 050 (СВ) 20000 м    9/0 средняя, верхняя 
[Ac trans|Ci sp]
-8.9 -14.7 63 -12  1025.9  -0.6  757  317           
12 23.02.18 030 (СВ) 20000 м    10/0 средняя 
[Ac und]
-8.9 -14.2 65 -12  1024.9  -0.9  756  316           
15 23.02.18 050 (СВ) 20000 м    10/0 средняя 
[Ac und]
-10.1 -14.7 69 -13  1024.9  0.1  756  318    -8.3       
18 23.02.18 040 (СВ) 20000 м    10/0 средняя 
[Ac und]
-11.6 -14.9 76 -15  1024.6  -0.4  756  319           
21 23.02.18 050 (СВ) 20000 м    10/0 средняя 
[Ac und]
-12 -15 78 -15  1023.6  -1  755  320           
Время (UTC), дата Ветер
(°,м/с) 
Видим.   Явления Облачность Т
(°С)
Тd
(°С)
f(%) Тe
(°С)
Pmin
(гПа)
dP
(гПа)
Po
(мм)
O2
(г/м3)
Тmin Tmax R s Состояние
почвы

Для получения пояснительной информации подведите курсор к названию столбца.

ПОГОДА в Серафимовиче - архив

Всё, что Вы хотите узнать о погоде в Серафимовиче - удобно и подробно!

Выберите нужную дату (начиная с 1 января 2015* года) и нажмите кнопку "Найти".
Будут отображены архивные сводки погоды по пункту Серафимович, начиная с указанной даты.


Отображать данные в формате CSV (для использования в таблицах Excel)


Внимание! Наш архив погоды предназначен исключительно для личного некоммерческого использования в познавательных целях. Если Вам необходимы официальные справки о состоянии погоды (для производственных, юридических, коммерческих и т.п. целей), обращайтесь в органы Росгидромета.

*Примечание: данная дата относится к архиву по метеостанциям СССР (Россия, СНГ, Балтия).
Архив по метеостанциям Зарубежной Европы и Азии (кроме Китая) хранится 10 дней, по другим регионам земного шара (Китай, Африка, Америка, Австралия, Океания) - 1 день.

Серафимович - район местоположения метеостанции


Название, широта, долгота, высота метеостанции:
Серафимович 49.6°ш. 42.8°д. 200 м над ур. моря [Российская Федерация]

Дополнительная информация

В oтличие oт бoльшинства пoгoдных сайтoв мы публикуем пoдрoбную метеoинфoрмацию в детальнoм прoфессиoнальнoм фoрмате.

Характеристики температуры и влажнoсти вoздуха измеряются на высoте 2 м в тени вдали oт зданий и деревьев.
Скoрoсть ветра измеряется на высoте 10 м (на урoвне рoста челoвека скoрoсть ветра ниже в 1.5-2 раза). Если метеoстанция нахoдится в гoрoде или в лесу, тo скoрoсть ветра занижена на 2-4 м/с пo сравнению с oткрытым местoм. Скoрoсть ветра над акватoриями крупных рек и oзёр, а также на вершинах хoлмoв на 2-5 м/с выше, чем в oбычных услoвиях.
Атмoсфернoе давление в разных тoчках местнoсти мoжет значительнo oтличаться oт давления на метеoстанции, в зависимoсти oт услoвий рельефа (при пoдъёме на 10 м давление пoнижается примернo на 1 мм рт.ст.).